TimeMST,TemperatureF,Dew PointF,Humidity,Sea Level PressureIn,VisibilityMPH,Wind Direction,Wind SpeedMPH,Gust SpeedMPH,PrecipitationIn,Events,Conditions,WindDirDegrees,DateUTC
12:53 AM,52.0,34.0,50,29.69,10.0,SW,26.5,35.7,N/A,,Clear,220,2012-12-05 07:53:00
1:53 AM,51.1,33.1,50,29.66,10.0,SW,21.9,34.5,N/A,,Clear,230,2012-12-05 08:53:00
2:53 AM,54.0,33.1,45,29.65,10.0,SSW,29.9,36.8,N/A,,Clear,210,2012-12-05 09:53:00
3:53 AM,53.1,32.0,45,29.62,10.0,SSW,21.9,33.4,N/A,,Clear,210,2012-12-05 10:53:00
4:53 AM,51.1,33.1,50,29.62,10.0,SW,24.2,32.2,N/A,,Clear,220,2012-12-05 11:53:00
5:53 AM,53.1,33.1,47,29.60,10.0,SW,31.1,40.3,N/A,,Clear,220,2012-12-05 12:53:00
7:53 AM,52.0,33.1,49,29.60,10.0,SW,28.8,36.8,N/A,,Clear,220,2012-12-05 14:53:00
8:53 AM,53.1,33.1,47,29.59,10.0,SW,21.9,33.4,N/A,,Clear,230,2012-12-05 15:53:00
9:53 AM,54.0,34.0,47,29.62,10.0,SW,29.9,42.6,N/A,,Clear,230,2012-12-05 16:53:00
10:53 AM,55.0,30.0,38,29.64,10.0,WSW,35.7,50.6,N/A,,Clear,240,2012-12-05 17:53:00
11:53 AM,54.0,28.0,37,29.65,10.0,WSW,32.2,44.9,N/A,,Clear,240,2012-12-05 18:53:00
12:53 PM,53.1,21.9,30,29.68,10.0,West,34.5,47.2,N/A,,Clear,260,2012-12-05 19:53:00
1:53 PM,51.1,14.0,23,29.71,5.0,WSW,39.1,54.1,N/A,,Haze,250,2012-12-05 20:53:00
2:21 PM,50.0,12.2,22,29.71,2.5,West,43.7,55.2,N/A,,Haze,260,2012-12-05 21:21:00
2:36 PM,48.2,15.8,27,29.74,6.0,West,36.8,49.5,N/A,,Haze,260,2012-12-05 21:36:00
2:53 PM,48.9,14.0,25,29.76,8.0,West,38.0,48.3,N/A,,Clear,260,2012-12-05 21:53:00
3:53 PM,45.0,12.0,26,29.86,10.0,West,24.2,33.4,N/A,,Clear,270,2012-12-05 22:53:00
4:53 PM,41.0,14.0,33,29.94,10.0,WNW,13.8,-,N/A,,Overcast,290,2012-12-05 23:53:00
5:53 PM,37.0,10.9,34,29.96,10.0,NW,18.4,-,N/A,,Clear,310,2012-12-06 00:53:00
6:53 PM,35.1,12.0,39,30.01,10.0,WNW,9.2,-,N/A,,Clear,300,2012-12-06 01:53:00
7:53 PM,36.0,12.0,37,30.02,10.0,WNW,15.0,-,N/A,,Clear,290,2012-12-06 02:53:00
8:53 PM,36.0,12.0,37,30.04,10.0,WSW,5.8,-,N/A,,Clear,250,2012-12-06 03:53:00
9:53 PM,34.0,12.0,40,30.06,10.0,WSW,5.8,-,N/A,,Clear,250,2012-12-06 04:53:00
10:53 PM,34.0,14.0,44,30.05,10.0,SW,12.7,-,N/A,,Clear,230,2012-12-06 05:53:00
11:53 PM,33.1,15.1,48,30.06,10.0,SW,11.5,-,N/A,,Clear,220,2012-12-06 06:53:00